[[{"header":{"parameterUnit":"m.s-1","parameterCategory":1,"la1":30.2991,"la2":30.254,"lo1":-89.0895,"lo2":-89.0444,"dy":0.0017,"dx":0.0017,"nx":28,"ny":28,"refTime":"2024-09-01T09:00:00:Z","depth":0,"parameterNumber":2,"parameterNumberName":"U-component_of_WINDS"},"data":[0,0,0,0,0,0,0,0,0,0,0,0,0,0,0,0,0,0,0,0,0,0,0,0,0,0,0,0,0,0,0,0,0,0,0,0,0,0,0,0,0,0,0,0,0,0,0,0,0,0,0,0,0,0,0,0,0,0,-0.1605,-0.1606,0,-0.1697,-0.1698,-0.1699,-0.1759,-0.1759,-0.176,-0.176,-0.1852,-0.1854,-0.1856,0,0,0,0,0,0,0,0,0,0,0,0,0,-0.1481,-0.1483,-0.1605,-0.1606,-0.1608,-0.1697,-0.1698,-0.1699,-0.1759,-0.1759,-0.176,-0.176,-0.1851,-0.1854,-0.1856,0,0,0,0,0,0,0,0,0,0,0,0,0,-0.155,-0.1484,-0.1605,-0.1648,-0.1653,-0.1697,-0.1698,-0.17,-0.1759,-0.1759,-0.176,-0.176,-0.1851,-0.1854,-0.1857,-0.1864,0,0,-0.1866,-0.1868,0,0,0,0,0,0,0,0,-0.1546,-0.1555,-0.1641,-0.1645,-0.1651,-0.1717,-0.1688,-0.1755,-0.1759,-0.1718,-0.176,-0.1761,-0.1807,-0.1813,-0.1829,-0.1869,-0.1873,-0.1867,-0.1868,-0.187,-0.1871,0,0,0,0,0,0,0,-0.1541,-0.1551,-0.1642,-0.1642,-0.1648,-0.1663,-0.1673,-0.1701,-0.1758,-0.1722,-0.1727,-0.1737,-0.1809,-0.1826,-0.1832,-0.1874,-0.1867,-0.1869,-0.1871,-0.1872,-0.1926,-0.1925,0,0,0,0,0,0,-0.153,-0.1547,-0.1639,-0.1644,-0.1599,-0.1664,-0.1676,-0.1695,-0.1758,-0.1768,-0.1736,-0.1739,-0.182,-0.1828,-0.1835,-0.185,-0.187,-0.1873,-0.1875,-0.1926,-0.1926,-0.1925,0,0,0,0,0,0,-0.1527,-0.1538,-0.1635,-0.1597,-0.161,-0.1666,-0.1687,-0.1697,-0.1713,-0.1769,-0.1779,-0.1743,-0.1821,-0.1831,-0.1857,-0.1853,-0.1874,-0.1877,-0.1927,-0.1926,-0.1926,-0.1877,0,0,0,0,0,0,-0.1523,-0.1536,-0.154,-0.1596,-0.1612,-0.1655,-0.1687,-0.1698,-0.1719,-0.1724,-0.1778,-0.1787,-0.1822,-0.1852,-0.186,-0.1858,-0.1879,-0.1927,-0.1927,-0.1926,-0.1879,-0.1875,-0.1871,0,0,0,0,0,-0.1519,-0.1522,-0.154,-0.155,-0.1618,-0.1655,-0.1664,-0.1705,-0.1718,-0.1722,-0.1758,-0.1785,-0.1852,-0.1854,-0.1864,-0.1863,-0.1928,-0.1927,-0.1926,-0.1881,-0.1875,-0.1871,0,0,0,0,0,0,-0.1462,-0.153,-0.155,-0.1572,-0.1607,-0.1665,-0.1671,-0.1698,-0.173,-0.1733,-0.1782,-0.1794,-0.1815,-0.1842,-0.1842,-0.1874,-0.1893,-0.1894,-0.1856,-0.1851,-0.1847,-0.184,-0.1882,0,0,0,0,0,-0.1452,-0.1477,-0.1535,-0.1548,-0.1565,-0.1615,-0.1633,-0.1662,-0.17,-0.1715,-0.1753,-0.1788,-0.1818,-0.1836,-0.1866,-0.1883,-0.1896,-0.1887,-0.1883,-0.1879,-0.1879,-0.1892,-0.1889,-0.1922,-0.1922,-0.1922,0,0,-0.1432,-0.1472,-0.1485,-0.1538,-0.1569,-0.1594,-0.1627,-0.1651,-0.167,-0.1719,-0.1746,-0.1775,-0.1818,-0.184,-0.1852,-0.1863,-0.1873,-0.1878,-0.1875,-0.1877,-0.189,-0.1887,-0.1884,-0.1921,-0.1921,-0.1921,0,0,-0.1408,-0.1441,-0.1456,-0.1487,-0.1533,-0.1566,-0.157,-0.1624,-0.1645,-0.1674,-0.1711,-0.1734,-0.1783,-0.1813,-0.1834,-0.1823,-0.1849,-0.1831,-0.1809,-0.1821,-0.1818,-0.1816,-0.1813,-0.1811,-0.1831,-0.1831,-0.1831,0,-0.1377,-0.1416,-0.146,-0.1483,-0.1506,-0.1552,-0.1568,-0.1595,-0.1648,-0.1663,-0.1675,-0.1739,-0.1771,-0.1801,-0.1798,-0.1814,-0.182,-0.1825,-0.1815,-0.1813,-0.1812,-0.1809,-0.1808,-0.1828,-0.1829,-0.1829,-0.1829,0,-0.1376,-0.1402,-0.1409,-0.1461,-0.1484,-0.1503,-0.1551,-0.1569,-0.1596,-0.1628,-0.1657,-0.1697,-0.1737,-0.1746,-0.1772,-0.178,-0.1786,-0.1806,-0.1826,-0.1806,-0.1804,-0.1803,-0.1825,-0.1826,-0.1827,-0.1827,0,0,-0.1318,-0.1395,-0.1397,-0.1421,-0.1477,-0.1498,-0.1519,-0.1559,-0.1574,-0.1609,-0.1629,-0.167,-0.1689,-0.1713,-0.1743,-0.1753,-0.1743,-0.1772,-0.1774,-0.1766,-0.1755,-0.174,-0.1738,-0.176,-0.176,-0.176,-0.1751,0,-0.1303,-0.1344,-0.1385,-0.1412,-0.1438,-0.1482,-0.1501,-0.1536,-0.1567,-0.1593,-0.1627,-0.1656,-0.1678,-0.1694,-0.1705,-0.1741,-0.1741,-0.1742,-0.1779,-0.178,-0.1767,-0.1737,-0.1721,-0.171,-0.1751,-0.1751,-0.1751,0,-0.129,-0.1325,-0.1354,-0.1408,-0.142,-0.1436,-0.1477,-0.1501,-0.1542,-0.1564,-0.1592,-0.1624,-0.1649,-0.1667,-0.1702,-0.1702,-0.172,-0.174,-0.174,-0.1746,-0.1764,-0.1742,-0.1708,-0.1706,-0.175,-0.175,-0.175,0,-0.1246,-0.13,-0.1325,-0.1344,-0.1407,-0.1418,-0.1445,-0.1487,-0.1509,-0.1544,-0.1558,-0.1595,-0.1615,-0.1643,-0.1684,-0.1693,-0.1716,-0.1737,-0.1735,-0.1734,-0.1737,-0.1736,-0.1706,-0.1748,-0.1748,-0.1748,-0.1748,0,-0.1225,-0.1241,-0.1306,-0.1321,-0.1341,-0.1388,-0.1407,-0.1437,-0.1475,-0.1497,-0.1537,-0.1557,-0.1611,-0.1637,-0.1669,-0.1694,-0.1703,-0.1721,-0.1729,-0.1718,-0.1715,-0.173,-0.1732,-0.1748,-0.1748,-0.1748,-0.1748,0,-0.1178,-0.1223,-0.1253,-0.1311,-0.1326,-0.1338,-0.1387,-0.1404,-0.1437,-0.1465,-0.1474,-0.1526,-0.1559,-0.1604,-0.165,-0.1672,-0.1693,-0.1706,-0.1679,-0.1684,-0.168,-0.1679,-0.1658,-0.1658,-0.1698,-0.1698,-0.1698,0,-0.1162,-0.1176,-0.1236,-0.1254,-0.128,-0.1308,-0.133,-0.1378,-0.1399,-0.1449,-0.1459,-0.1496,-0.1527,-0.1578,-0.162,-0.1656,-0.1671,-0.1661,-0.1676,-0.1664,-0.1671,-0.167,-0.1672,-0.1657,-0.1656,-0.1655,-0.1655,0,-0.1129,-0.115,-0.1181,-0.122,-0.1246,-0.1279,-0.1313,-0.1325,-0.138,-0.1402,-0.1437,-0.1462,-0.151,-0.1546,-0.1587,-0.1615,-0.1644,-0.165,-0.1651,-0.1639,-0.1623,-0.1633,-0.1669,-0.165,-0.165,-0.1651,-0.1651,-0.1651,-0.1097,-0.1112,-0.1157,-0.119,-0.1221,-0.1253,-0.1272,-0.1308,-0.1338,-0.1381,-0.1407,-0.1441,-0.1484,-0.1543,-0.1569,-0.1597,-0.1608,-0.161,-0.161,-0.161,-0.1607,-0.1619,-0.1604,-0.1604,-0.1605,-0.1605,-0.1605,0,-0.1066,-0.1098,-0.1128,-0.1176,-0.1202,-0.1228,-0.1268,-0.1288,-0.1317,-0.1355,-0.1385,-0.1426,-0.1461,-0.1506,-0.1544,-0.1557,-0.1572,-0.1566,-0.1565,-0.1571,-0.1594,-0.1589,-0.1554,-0.1554,-0.1554,-0.1554,-0.1554,-0.1554,-0.1053,-0.108,-0.1107,-0.115,-0.1181,-0.1215,-0.1235,-0.1265,-0.1295,-0.1338,-0.1368,-0.1398,-0.1438,-0.148,-0.1513,-0.1526,-0.1538,-0.1528,-0.1545,-0.1565,-0.157,-0.1574,-0.157,-0.1531,-0.1531,-0.152,-0.152,-0.152]},{"header":{"parameterUnit":"m.s-1","parameterCategory":1,"la1":30.2991,"la2":30.254,"lo1":-89.0895,"lo2":-89.0444,"dy":0.0017,"dx":0.0017,"nx":28,"ny":28,"refTime":"2024-09-01T09:00:00:Z","depth":0,"parameterNumber":3,"parameterNumberName":"V-component_of_WINDS"},"data":[0,0,0,0,0,0,0,0,0,0,0,0,0,0,0,0,0,0,0,0,0,0,0,0,0,0,0,0,0,0,0,0,0,0,0,0,0,0,0,0,0,0,0,0,0,0,0,0,0,0,0,0,0,0,0,0,0,0,0.1796,0.1796,0,0.1803,0.1803,0.1803,0.1794,0.1793,0.1793,0.1792,0.1803,0.1803,0.1804,0,0,0,0,0,0,0,0,0,0,0,0,0,0.1777,0.1778,0.1795,0.1796,0.1796,0.1803,0.1803,0.1803,0.1794,0.1793,0.1793,0.1792,0.1803,0.1803,0.1804,0,0,0,0,0,0,0,0,0,0,0,0,0,0.1785,0.1778,0.1795,0.1792,0.1791,0.1803,0.1803,0.1803,0.1794,0.1793,0.1793,0.1792,0.1802,0.1803,0.1804,0.1821,0,0,0.1807,0.1807,0,0,0,0,0,0,0,0,0.1785,0.1786,0.1792,0.1792,0.1792,0.1797,0.18,0.1809,0.1794,0.1793,0.1792,0.1792,0.1801,0.1802,0.1805,0.1821,0.1822,0.1807,0.1808,0.1808,0.1808,0,0,0,0,0,0,0,0.1784,0.1785,0.1799,0.1792,0.1792,0.1791,0.1792,0.1802,0.18,0.1793,0.1792,0.1793,0.1801,0.1804,0.1805,0.1822,0.1807,0.1808,0.1808,0.1809,0.1855,0.1855,0,0,0,0,0,0,0.1783,0.1785,0.1798,0.1799,0.1787,0.1792,0.1792,0.1796,0.18,0.18,0.1794,0.1793,0.1803,0.1804,0.1806,0.1826,0.1808,0.1809,0.1809,0.1854,0.1855,0.1855,0,0,0,0,0,0,0.1783,0.1785,0.1798,0.1792,0.1793,0.1793,0.1797,0.1796,0.1799,0.18,0.18,0.1797,0.1803,0.1804,0.1817,0.1826,0.1809,0.181,0.1853,0.1854,0.1855,0.1867,0,0,0,0,0,0,0.1783,0.1785,0.179,0.1792,0.1794,0.1808,0.1797,0.1797,0.18,0.1799,0.1803,0.1804,0.1802,0.1816,0.1818,0.1827,0.1811,0.1852,0.1854,0.1855,0.1866,0.1868,0.187,0,0,0,0,0,0.1782,0.1793,0.179,0.1791,0.18,0.1809,0.181,0.1807,0.1801,0.1807,0.1808,0.1803,0.1825,0.1817,0.182,0.1829,0.1852,0.1853,0.1855,0.1864,0.1868,0.187,0,0,0,0,0,0,0.1792,0.1793,0.179,0.1801,0.1805,0.1807,0.1814,0.181,0.1816,0.1815,0.1813,0.1814,0.1828,0.183,0.1821,0.1847,0.1838,0.184,0.1844,0.1847,0.185,0.1848,0.1812,0,0,0,0,0,0.1795,0.1801,0.1802,0.1813,0.1815,0.1814,0.1818,0.1816,0.182,0.1822,0.1824,0.1829,0.1837,0.1843,0.185,0.1867,0.1868,0.1875,0.1877,0.1879,0.188,0.1891,0.1894,0.186,0.186,0.186,0,0,0.1802,0.1804,0.1808,0.1815,0.1817,0.1825,0.1815,0.1823,0.183,0.1823,0.1835,0.1838,0.1844,0.1859,0.1866,0.1861,0.1891,0.1881,0.1882,0.1883,0.1893,0.1896,0.1899,0.1861,0.1861,0.1861,0,0,0.1819,0.182,0.1829,0.1833,0.1837,0.1837,0.184,0.1843,0.1844,0.1856,0.1852,0.1861,0.1874,0.1879,0.1883,0.1906,0.1902,0.1908,0.192,0.193,0.1933,0.1935,0.1944,0.1947,0.191,0.191,0.191,0,0.1827,0.1837,0.1835,0.1844,0.1848,0.1843,0.1853,0.1857,0.1863,0.1867,0.1862,0.1881,0.1884,0.1901,0.1907,0.191,0.1914,0.1907,0.1933,0.1935,0.1937,0.1945,0.1949,0.1911,0.1911,0.1911,0.1911,0,0.1848,0.1856,0.1863,0.1869,0.1874,0.1884,0.1884,0.189,0.1889,0.189,0.1905,0.1909,0.1918,0.1923,0.1921,0.194,0.1937,0.1933,0.1923,0.1941,0.1949,0.1952,0.1912,0.1912,0.1911,0.1911,0,0,0.1869,0.1875,0.1878,0.1882,0.1887,0.1894,0.1905,0.1913,0.1919,0.1925,0.1934,0.1948,0.1944,0.1949,0.1949,0.1958,0.1977,0.1952,0.1953,0.1957,0.2,0.2003,0.2006,0.1975,0.1976,0.1976,0.1999,0,0.1886,0.1902,0.1902,0.1918,0.1926,0.1923,0.1933,0.1938,0.1941,0.1949,0.1953,0.1962,0.1956,0.1959,0.1968,0.1972,0.1985,0.1971,0.1985,0.1986,0.1983,0.201,0.2013,0.2034,0.2002,0.2003,0.2003,0,0.1907,0.1913,0.193,0.1936,0.194,0.1948,0.1957,0.1965,0.1972,0.1974,0.1981,0.198,0.1993,0.1984,0.2003,0.1994,0.2,0.2004,0.2004,0.2005,0.1994,0.2011,0.2041,0.2044,0.2008,0.2007,0.2007,0,0.192,0.1934,0.1946,0.1949,0.1957,0.1963,0.1967,0.1974,0.198,0.1988,0.1993,0.2003,0.2009,0.2018,0.2021,0.2014,0.2041,0.2032,0.2043,0.2043,0.2047,0.2047,0.2078,0.2053,0.2053,0.2052,0.2052,0,0.1939,0.1949,0.1952,0.1959,0.1972,0.1973,0.1986,0.199,0.1996,0.2006,0.2005,0.2014,0.2018,0.2028,0.2031,0.2047,0.205,0.2053,0.2053,0.2052,0.2052,0.2055,0.2054,0.2053,0.2053,0.2053,0.2053,0,0.1955,0.1957,0.197,0.1977,0.1979,0.1988,0.1995,0.2003,0.2007,0.2019,0.2022,0.2028,0.2041,0.2045,0.206,0.2062,0.2081,0.2081,0.2078,0.2078,0.2089,0.2088,0.2123,0.2128,0.21,0.21,0.21,0,0.1966,0.1974,0.1982,0.1988,0.1992,0.2001,0.2008,0.201,0.2017,0.2028,0.2035,0.2048,0.2058,0.2079,0.2085,0.2098,0.2098,0.2109,0.21,0.2099,0.2098,0.2097,0.2099,0.2111,0.2111,0.2111,0.2111,0,0.1985,0.1987,0.1995,0.2005,0.2012,0.202,0.2028,0.2033,0.2037,0.2046,0.2058,0.2066,0.2083,0.2096,0.2109,0.2115,0.2115,0.2115,0.2118,0.2117,0.2115,0.2116,0.2083,0.2114,0.2113,0.2113,0.2113,0.2113,0.1999,0.2007,0.2014,0.2024,0.2031,0.2038,0.2047,0.2052,0.2062,0.2075,0.2077,0.2091,0.2101,0.2119,0.2126,0.2138,0.2135,0.214,0.2141,0.2142,0.2143,0.2114,0.2141,0.2141,0.2141,0.2141,0.2141,0,0.2019,0.2024,0.2033,0.2044,0.2053,0.2052,0.2061,0.2069,0.2081,0.209,0.21,0.2116,0.213,0.2138,0.2152,0.2161,0.2161,0.2165,0.2164,0.2165,0.2145,0.214,0.2164,0.2164,0.2164,0.2164,0.2164,0.2164,0.203,0.2043,0.2046,0.2063,0.2069,0.2081,0.2087,0.2095,0.2103,0.212,0.2131,0.2137,0.2147,0.2162,0.2175,0.2178,0.2183,0.2187,0.2189,0.2169,0.2167,0.2164,0.216,0.2188,0.2188,0.2208,0.2209,0.2209]}]]